NOZ7JP LIRP-ENGM

Flight info

Callsign NOZ7JP
Flight time N/A
Altitude 37000
Route BEROK L153 OSBUL/N0456F360 DCT ABREG DCT LOKTA/N0456F370 DCT TEDGO DCT HAREM DCT LOHRE DCT ELNAT/N0452F360 DCT TOLGI DCT KEGAB DCT DOSUR DCT AMSEV/N0450F370 DCT PIPEX M609 RIPAM
Aircraft B38M/M-SDE1FGHILORVWXY/HB1

Departure

Time 2026-05-07 09:24
Airport Pisa International Airport (LIRP)

Arrival

Time N/A
Airport Oslo-Gardermoen International Airport (ENGM)
Time Latitude Longitude Altitude Speed Heading
2026-05-07 08:50 43.69747 10.40031 18 ft 0 kts
2026-05-07 09:15 43.69743 10.40030 17 ft 2 kts
2026-05-07 09:15 43.69724 10.40026 19 ft 3 kts
2026-05-07 09:15 43.69704 10.40021 17 ft 3 kts
2026-05-07 09:15 43.69686 10.40017 18 ft 2 kts
2026-05-07 09:16 43.69682 10.40016 19 ft 1 kts
2026-05-07 09:18 43.69684 10.40017 18 ft 1 kts 12°
2026-05-07 09:19 43.69688 10.40033 21 ft 4 kts 99°
2026-05-07 09:19 43.69635 10.40060 18 ft 14 kts 168°
2026-05-07 09:19 43.69512 10.40087 19 ft 22 kts 173°
2026-05-07 09:19 43.69358 10.40098 25 ft 24 kts 196°
2026-05-07 09:20 43.69207 10.39954 28 ft 27 kts 217°
2026-05-07 09:20 43.69062 10.39803 24 ft 26 kts 217°
2026-05-07 09:20 43.68931 10.39669 22 ft 23 kts 216°
2026-05-07 09:20 43.68800 10.39534 20 ft 24 kts 217°
2026-05-07 09:21 43.68664 10.39393 20 ft 25 kts 216°
2026-05-07 09:21 43.68522 10.39248 20 ft 26 kts 217°
2026-05-07 09:21 43.68372 10.39094 20 ft 28 kts 217°
2026-05-07 09:21 43.68218 10.38931 16 ft 28 kts 217°
2026-05-07 09:22 43.68057 10.38767 17 ft 29 kts 216°
2026-05-07 09:22 43.67895 10.38600 17 ft 30 kts 216°
2026-05-07 09:22 43.67729 10.38428 17 ft 30 kts 217°
2026-05-07 09:22 43.67557 10.38248 17 ft 31 kts 216°
2026-05-07 09:23 43.67396 10.38124 17 ft 22 kts 169°
2026-05-07 09:23 43.67298 10.38272 17 ft 16 kts 111°
2026-05-07 09:23 43.67351 10.38368 18 ft 15 kts 37°
2026-05-07 09:23 43.67547 10.38568 20 ft 68 kts 36°
2026-05-07 09:24 43.68110 10.39150 18 ft 131 kts 37°
2026-05-07 09:24 43.68979 10.40050 45 ft 177 kts 34°
2026-05-07 09:24 43.69973 10.41066 655 ft 176 kts 35°
2026-05-07 09:24 43.70982 10.42083 1232 ft 185 kts 32°
2026-05-07 09:25 43.72130 10.42933 1887 ft 192 kts 19°
2026-05-07 09:25 43.73495 10.43354 2351 ft 212 kts 359°
2026-05-07 09:25 43.74915 10.43079 3271 ft 206 kts 340°
2026-05-07 09:25 43.76319 10.42348 3754 ft 227 kts 336°
2026-05-07 09:26 43.77862 10.41511 4208 ft 248 kts 336°
2026-05-07 09:26 43.79536 10.40620 4732 ft 266 kts 337°
2026-05-07 09:26 43.81276 10.39710 5599 ft 267 kts 337°
2026-05-07 09:26 43.83032 10.38793 6435 ft 272 kts 337°
2026-05-07 09:27 43.84808 10.37869 7266 ft 274 kts 337°
2026-05-07 09:27 43.86612 10.36932 8085 ft 278 kts 336°
2026-05-07 09:27 43.90414 10.35607 9709 ft 289 kts 351°
2026-05-07 09:28 43.92434 10.35306 10380 ft 297 kts 351°
2026-05-07 09:28 43.94554 10.34981 10746 ft 316 kts 351°
2026-05-07 09:28 43.96797 10.34634 11153 ft 332 kts 351°
2026-05-07 09:28 43.99111 10.34407 11672 ft 343 kts 360°
2026-05-07 09:29 44.01500 10.34567 12449 ft 345 kts 360°
2026-05-07 09:29 44.03912 10.34688 13151 ft 348 kts 359°
2026-05-07 09:29 44.06346 10.34792 13794 ft 351 kts 359°
2026-05-07 09:29 44.08808 10.34885 14343 ft 356 kts 359°
2026-05-07 09:30 44.11290 10.34973 14992 ft 359 kts 358°
2026-05-07 09:30 44.13803 10.35060 15587 ft 363 kts 358°
2026-05-07 09:30 44.16340 10.35124 16219 ft 365 kts 354°
2026-05-07 09:30 44.18886 10.34879 16774 ft 369 kts 352°
2026-05-07 09:31 44.21455 10.34627 17409 ft 372 kts 352°
2026-05-07 09:31 44.24052 10.34389 18007 ft 375 kts 352°
2026-05-07 09:31 44.26670 10.34157 18531 ft 379 kts 352°
2026-05-07 09:31 44.29316 10.33930 19031 ft 382 kts 352°
2026-05-07 09:32 44.31983 10.33699 19503 ft 387 kts 351°
2026-05-07 09:32 44.34683 10.33465 19952 ft 391 kts 351°
2026-05-07 09:32 44.37411 10.33231 20402 ft 394 kts 351°
2026-05-07 09:32 44.40157 10.32995 20932 ft 396 kts 351°
2026-05-07 09:33 44.42923 10.32755 21355 ft 401 kts 351°
2026-05-07 09:33 44.45686 10.32517 21803 ft 404 kts 350°
2026-05-07 09:33 44.48507 10.32272 22259 ft 408 kts 350°
2026-05-07 09:33 44.51350 10.32027 22688 ft 411 kts 350°
2026-05-07 09:34 44.54215 10.31777 23117 ft 414 kts 350°
2026-05-07 09:34 44.57114 10.31526 23569 ft 418 kts 350°
2026-05-07 09:34 44.60028 10.31275 23981 ft 420 kts 350°
2026-05-07 09:34 44.62951 10.31019 24391 ft 422 kts 349°
2026-05-07 09:35 44.65889 10.30764 24813 ft 424 kts 350°
2026-05-07 09:35 44.68842 10.30507 25223 ft 426 kts 350°
2026-05-07 09:35 44.71813 10.30248 25621 ft 428 kts 350°
2026-05-07 09:35 44.74794 10.29987 26010 ft 431 kts 350°
2026-05-07 09:36 44.77791 10.29725 26391 ft 433 kts 349°
2026-05-07 09:36 44.80806 10.29455 26752 ft 435 kts 348°
2026-05-07 09:36 44.83714 10.28564 27070 ft 424 kts 333°
2026-05-07 09:36 44.86479 10.27206 27374 ft 428 kts 334°
2026-05-07 09:37 44.89314 10.25862 27727 ft 430 kts 334°
2026-05-07 09:37 44.92155 10.24491 28073 ft 433 kts 334°
2026-05-07 09:37 44.95013 10.23101 28419 ft 435 kts 333°
2026-05-07 09:37 44.97880 10.21702 28742 ft 438 kts 333°
2026-05-07 09:38 45.00766 10.20290 29060 ft 440 kts 333°
2026-05-07 09:38 45.03670 10.18869 29396 ft 442 kts 333°
2026-05-07 09:38 45.06588 10.17439 29718 ft 445 kts 333°
2026-05-07 09:38 45.09521 10.16000 30040 ft 447 kts 333°
2026-05-07 09:39 45.12473 10.14551 30297 ft 450 kts 334°
2026-05-07 09:39 45.15442 10.13091 30557 ft 451 kts 334°
2026-05-07 09:39 45.18414 10.11628 30817 ft 453 kts 334°
2026-05-07 09:39 45.21403 10.10155 31075 ft 455 kts 334°
2026-05-07 09:40 45.24399 10.08678 31332 ft 457 kts 334°
2026-05-07 09:40 45.27410 10.07190 31583 ft 459 kts 334°
2026-05-07 09:40 45.30389 10.05718 31826 ft 460 kts 334°
2026-05-07 09:40 45.33421 10.04216 32076 ft 462 kts 335°
2026-05-07 09:41 45.36467 10.02707 32378 ft 462 kts 335°
2026-05-07 09:41 45.39500 10.01202 32723 ft 462 kts 335°
2026-05-07 09:41 45.42535 9.99694 33048 ft 461 kts 335°
2026-05-07 09:41 45.45565 9.98188 33355 ft 461 kts 335°
2026-05-07 09:42 45.47574 9.97188 33551 ft 462 kts 335°
2026-05-07 09:42 45.50607 9.95677 33845 ft 462 kts 335°
2026-05-07 09:42 45.53638 9.94165 34127 ft 462 kts 335°
2026-05-07 09:42 45.56677 9.92648 34366 ft 462 kts 335°
2026-05-07 09:43 45.59707 9.91133 34605 ft 462 kts 335°
2026-05-07 09:43 45.62743 9.89613 34852 ft 462 kts 335°
2026-05-07 09:43 45.65777 9.88093 35109 ft 461 kts 335°
2026-05-07 09:43 45.68806 9.86573 35360 ft 461 kts 335°
2026-05-07 09:44 45.71837 9.85051 35585 ft 461 kts 335°
2026-05-07 09:44 45.74829 9.83547 35826 ft 461 kts 335°
2026-05-07 09:44 45.77863 9.82020 36067 ft 461 kts 335°
2026-05-07 09:44 45.80889 9.80495 36237 ft 461 kts 336°
2026-05-07 09:45 45.83913 9.78969 36454 ft 461 kts 336°
2026-05-07 09:45 45.86938 9.77441 36669 ft 461 kts 336°
2026-05-07 09:45 45.89965 9.75911 36899 ft 461 kts 336°
2026-05-07 09:45 45.92989 9.74379 37011 ft 461 kts 336°
2026-05-07 09:46 45.96023 9.72841 37007 ft 461 kts 336°
2026-05-07 09:46 46.02023 9.69795 37015 ft 460 kts 336°
2026-05-07 09:47 46.08060 9.66722 37002 ft 459 kts 336°
2026-05-07 09:47 46.14075 9.63654 37027 ft 460 kts 336°
2026-05-07 09:48 46.20107 9.60571 37044 ft 459 kts 336°
2026-05-07 09:48 46.26128 9.57487 37004 ft 458 kts 336°
2026-05-07 09:49 46.32259 9.54837 36976 ft 465 kts 350°
2026-05-07 09:49 46.38669 9.53629 36989 ft 465 kts 348°
2026-05-07 09:50 46.45087 9.52379 37023 ft 466 kts 348°
2026-05-07 09:50 46.51517 9.51140 37023 ft 466 kts 349°
2026-05-07 09:51 46.57936 9.49901 37029 ft 466 kts 349°
2026-05-07 09:51 46.64364 9.48656 37022 ft 466 kts 349°
2026-05-07 09:52 46.70790 9.47410 37016 ft 465 kts 349°
2026-05-07 09:52 46.77165 9.46170 37017 ft 465 kts 349°
2026-05-07 09:53 46.83578 9.44921 37030 ft 465 kts 349°
2026-05-07 09:53 46.90000 9.43666 37033 ft 465 kts 349°
2026-05-07 09:54 46.96407 9.42411 37032 ft 464 kts 349°
2026-05-07 09:54 47.02768 9.41162 37030 ft 465 kts 349°
2026-05-07 09:55 47.09179 9.39900 37048 ft 465 kts 349°
2026-05-07 09:55 47.15580 9.38637 37034 ft 464 kts 349°
2026-05-07 09:56 47.21988 9.37370 37056 ft 464 kts 349°
2026-05-07 09:56 47.28390 9.36101 37043 ft 464 kts 349°
2026-05-07 09:57 47.34792 9.34829 37054 ft 464 kts 349°
2026-05-07 09:57 47.41198 9.33553 37053 ft 464 kts 349°
2026-05-07 09:58 47.47552 9.32284 37046 ft 464 kts 349°
2026-05-07 09:58 47.53952 9.31002 37048 ft 464 kts 349°
2026-05-07 09:59 47.60348 9.29719 37046 ft 464 kts 349°
2026-05-07 09:59 47.66746 9.28432 37048 ft 464 kts 349°
2026-05-07 10:00 47.73149 9.27140 37049 ft 464 kts 349°
2026-05-07 10:00 47.79539 9.25849 37043 ft 464 kts 349°
2026-05-07 10:01 47.85934 9.24553 37042 ft 463 kts 349°
2026-05-07 10:01 47.92325 9.23254 37032 ft 463 kts 350°
2026-05-07 10:02 47.98666 9.21962 37029 ft 463 kts 349°
2026-05-07 10:02 48.05054 9.20658 37024 ft 463 kts 350°
2026-05-07 10:03 48.11427 9.19354 37027 ft 463 kts 350°
2026-05-07 10:03 48.17837 9.18534 37000 ft 465 kts
2026-05-07 10:04 48.24277 9.19588 37009 ft 467 kts
2026-05-07 10:04 48.30740 9.20646 37018 ft 467 kts
2026-05-07 10:05 48.37210 9.21737 37009 ft 467 kts
2026-05-07 10:05 48.43669 9.22830 37017 ft 467 kts
2026-05-07 10:06 48.50133 9.23927 37020 ft 467 kts
2026-05-07 10:06 48.56553 9.25019 37028 ft 467 kts
2026-05-07 10:07 48.63023 9.26080 37014 ft 467 kts
2026-05-07 10:07 48.69498 9.27059 37019 ft 467 kts
2026-05-07 10:08 48.75967 9.28049 37024 ft 467 kts
2026-05-07 10:08 48.82449 9.29043 37023 ft 467 kts
2026-05-07 10:09 48.88918 9.30039 37013 ft 467 kts
2026-05-07 10:09 48.95346 9.31031 37007 ft 467 kts
2026-05-07 10:10 49.01816 9.32033 37002 ft 467 kts
2026-05-07 10:10 49.08283 9.33035 37007 ft 467 kts
2026-05-07 10:11 49.14759 9.34043 37010 ft 467 kts
2026-05-07 10:11 49.21234 9.35052 37012 ft 467 kts
2026-05-07 10:12 49.27701 9.36064 37017 ft 467 kts
2026-05-07 10:12 49.34171 9.37079 37005 ft 467 kts
2026-05-07 10:13 49.40642 9.38095 37006 ft 467 kts
2026-05-07 10:13 49.47066 9.39108 37007 ft 467 kts
2026-05-07 10:14 49.53540 9.40130 37008 ft 468 kts
2026-05-07 10:14 49.60013 9.41156 37003 ft 467 kts
2026-05-07 10:15 49.66491 9.42186 37003 ft 468 kts
2026-05-07 10:15 49.72970 9.43219 37002 ft 468 kts
2026-05-07 10:16 49.79447 9.44254 37001 ft 468 kts
2026-05-07 10:16 49.85934 9.45293 36998 ft 468 kts
2026-05-07 10:17 49.92416 9.46335 36993 ft 469 kts
2026-05-07 10:17 49.98908 9.47381 36996 ft 469 kts
2026-05-07 10:18 50.05396 9.48430 36990 ft 468 kts
2026-05-07 10:18 50.11875 9.49570 36990 ft 468 kts
2026-05-07 10:19 50.18349 9.50711 36987 ft 468 kts
2026-05-07 10:19 50.24787 9.51847 36971 ft 468 kts
2026-05-07 10:20 50.31262 9.52993 36984 ft 468 kts
2026-05-07 10:20 50.37736 9.54142 36984 ft 468 kts
2026-05-07 10:21 50.44202 9.55292 36981 ft 468 kts
2026-05-07 10:21 50.50677 9.56447 36981 ft 468 kts
2026-05-07 10:22 50.57143 9.57605 36981 ft 468 kts
2026-05-07 10:22 50.63581 9.58759 36984 ft 468 kts
2026-05-07 10:23 50.70045 9.59922 36968 ft 468 kts
2026-05-07 10:23 50.76511 9.61088 36982 ft 468 kts
2026-05-07 10:24 50.82991 9.62261 36979 ft 468 kts
2026-05-07 10:24 50.89466 9.63436 37124 ft 468 kts
2026-05-07 10:24 50.92707 9.64024 37309 ft 469 kts
2026-05-07 10:25 50.95945 9.64614 37514 ft 469 kts
2026-05-07 10:25 50.99188 9.65205 37728 ft 469 kts
2026-05-07 10:25 51.02428 9.65797 37909 ft 468 kts
2026-05-07 10:25 51.05665 9.66388 38012 ft 468 kts
2026-05-07 10:26 51.08906 9.66981 37991 ft 468 kts
2026-05-07 10:26 51.15368 9.68166 37985 ft 467 kts
2026-05-07 10:27 51.21825 9.68652 37974 ft 462 kts 348°
2026-05-07 10:27 51.28158 9.67128 38001 ft 464 kts 349°
2026-05-07 10:28 51.34551 9.65567 37988 ft 464 kts 349°
2026-05-07 10:28 51.40931 9.63968 38004 ft 465 kts 349°
2026-05-07 10:29 51.47319 9.62360 38023 ft 464 kts 349°
2026-05-07 10:29 51.53709 9.60746 37999 ft 464 kts 349°
2026-05-07 10:30 51.63290 9.58318 38007 ft 465 kts 349°
2026-05-07 10:30 51.68594 9.56970 38011 ft 465 kts 349°